JF1AJE-13 Weather Reports


Display with metric or nautical units.
time (UTC)temp
F
wind
direction
speed
MPH
gust
MPH
rain 1hr
in
rain 24hr
in
rain mn
in
humidity
%
barometer
mb
20260504174553 55 330 0.0 0.0 0.00 0.00 0.00 41 1008.6
20260504172551 54 313 0.0 0.0 0.00 0.00 0.00 43 1008.0
20260504170552 54 346 0.0 0.0 0.00 0.00 0.00 44 1007.5
20260504150550 58 337 0.0 0.0 0.00 0.00 0.00 45 1004.5
20260504140551 59 34 0.0 0.0 0.00 0.11 0.11 47 1003.1
20260504110551 66 350 0.0 0.0 0.00 0.11 0.11 40 997.4
20260504100552 73 19 0.0 0.0 0.00 0.11 0.11 27 994.9
20260504050553 88 316 0.0 17.0 0.00 0.11 0.11 31 988.8
20260504044552 88 77 4.0 17.0 0.00 0.11 0.11 32 988.9
20260504042552 85 135 2.0 16.0 0.00 0.11 0.11 35 989.3
20260504040552 84 114 11.0 16.0 0.00 0.11 0.11 37 989.5
20260504034551 85 110 1.0 14.0 0.00 0.11 0.11 36 989.8
20260504032552 83 206 3.0 12.0 0.00 0.11 0.11 41 990.0
20260504030552 83 178 5.0 12.0 0.00 0.11 0.11 44 990.5
20260504024552 84 120 6.0 8.0 0.00 0.11 0.11 43 990.5
20260504022552 83 187 5.0 6.0 0.00 0.11 0.11 45 990.9
20260504020553 81 50 1.0 6.0 0.00 0.11 0.11 50 991.0
20260504014553 79 274 1.0 1.0 0.00 0.11 0.11 54 991.5
20260504012552 77 21 0.0 1.0 0.00 0.11 0.11 56 991.9
20260504010550 75 10 0.0 1.0 0.00 0.11 0.11 58 992.1
20260504004552 74 65 0.0 0.0 0.00 0.11 0.11 61 992.4
20260504002552 73 59 0.0 0.0 0.00 0.11 0.11 62 992.6
20260504000553 71 336 0.0 0.0 0.00 0.11 0.11 66 992.6
20260503234551 69 49 0.0 0.0 0.00 0.11 0.11 69 992.6
20260503232551 67 63 0.0 0.0 0.00 0.11 0.11 74 992.7
20260503230553 66 18 0.0 0.0 0.00 0.11 0.11 78 992.5
20260503224557 65 10 0.0 0.0 0.00 0.11 0.11 83 992.6
20260503222551 63 21 0.0 0.0 0.00 0.11 0.11 86 992.4
20260503220553 62 330 0.0 0.0 0.00 0.11 0.11 88 992.5
20260503214552 62 331 0.0 0.0 0.00 0.11 0.11 89 992.3
20260503212550 62 353 0.0 0.0 0.01 0.11 0.11 89 991.6
20260503210552 62 313 0.0 0.0 0.01 0.11 0.11 89 991.6
20260503204553 68 316 0.0 0.0 0.06 0.11 0.11 89 991.5
20260503202551 68 91 0.0 0.0 0.09 0.10 0.10 90 991.4
20260503200551 66 128 0.0 0.0 0.09 0.10 0.10 89 991.9
20260503194552 66 138 0.0 0.0 0.04 0.05 0.05 89 992.3
20260503192551 66 138 0.0 11.0 0.02 0.02 0.02 88 992.7
20260503190550 66 137 0.0 11.0 0.02 0.02 0.02 87 992.9
20260503184551 66 148 0.0 12.0 0.01 0.01 0.01 86 993.5
20260503182553 65 137 5.0 14.0 0.00 0.00 0.00 83 994.6
20260503180551 65 207 2.0 14.0 0.00 0.00 0.00 80 994.4